Weather History for NW Arkansas Airport, AR

Change the Weather History Date:

Friday, December 7, 2012

  Actual Average Record
Temperature  
Mean Temperature 51 °F -  
Max Temperature 57 °F - - ()
Min Temperature 45 °F - - ()
Degree Days  
Heating Degree Days 14    
Growing Degree Days 1 (Base 50)    
Moisture  
Dew Point 52 °F    
Average Humidity 95    
Maximum Humidity 100    
Minimum Humidity 83    
Precipitation  
Precipitation 0.00 in - - ()
Sea Level Pressure  
Sea Level Pressure 29.84 in    
Wind  
Wind Speed 3 mph (South)    
Max Wind Speed 8 mph    
Max Gust Speed -    
Visibility 7 miles    
Events Rain    
T = Trace of Precipitation, MM = Missing Value Source: NWS Daily Summary

Daily Weather History Graph

Daily Weather History Graph

Search for Another Location

Airport:

Trip Planner

Search our weather history database for the weather conditions in past years. The results will help you decide how hot, cold, wet, or windy it might be!

Date:

Astronomy

Dec. 07, 2012 Rise Set
Actual Time 7:15 AM CST 5:02 PM CST
Civil Twilight 6:47 AM CST 5:30 PM CST
Nautical Twilight 6:15 AM CST 6:02 PM CST
Astronomical Twilight 5:43 AM CST 6:33 PM CST
Moon 12:45 AM CST (12/7) 12:50 PM CST (12/7)
Length of Visible Light 10h 43m
Length of Day
9h 46m
Last Quarter, 38% of the Moon is Illuminated
Dec 7
Last Quarter
Dec 13
New
Dec 19
First Quarter
Dec 28
Full
Jan 4
Last Quarter

Hourly Weather History & Observations

Time (CST) Temp. Windchill Dew Point Humidity Pressure Visibility Wind Dir Wind Speed Gust Speed Precip Events Conditions
12:53 AM 46.0 °F 42.5 °F 46.0 °F 100% 29.87 in 10.0 mi South 6.9 mph - N/A   Clear
1:53 AM 45.0 °F 43.5 °F 45.0 °F 100% 29.87 in 8.0 mi South 3.5 mph - N/A   Mostly Cloudy
2:53 AM 48.0 °F - 48.0 °F 100% 29.87 in 9.0 mi Calm Calm - N/A   Overcast
3:53 AM 48.0 °F - 48.0 °F 100% 29.86 in 8.0 mi SSE 4.6 mph - N/A   Overcast
4:53 AM 48.0 °F - 48.0 °F 100% 29.86 in 9.0 mi SSE 3.5 mph - N/A   Overcast
6:53 AM 48.9 °F - 48.0 °F 97% 29.87 in 8.0 mi Calm Calm - N/A   Overcast
7:53 AM 50.0 °F - 48.9 °F 96% 29.87 in 5.0 mi Calm Calm - N/A   Overcast
8:53 AM 50.0 °F - 48.9 °F 96% 29.88 in 7.0 mi Calm Calm - N/A   Overcast
9:53 AM 52.0 °F - 48.9 °F 89% 29.89 in 7.0 mi Calm Calm - N/A   Overcast
10:53 AM 54.0 °F - 51.1 °F 90% 29.87 in 8.0 mi SSE 5.8 mph - N/A   Overcast
11:17 AM 53.6 °F - 51.8 °F 94% 29.86 in 7.0 mi SSE 5.8 mph - N/A   Overcast
11:53 AM 55.0 °F - 52.0 °F 89% 29.84 in 7.0 mi South 8.1 mph - N/A   Overcast
12:13 PM 55.4 °F - 51.8 °F 88% 29.84 in 7.0 mi South 5.8 mph - N/A   Overcast
12:53 PM 57.0 °F - 52.0 °F 83% 29.81 in 9.0 mi South 6.9 mph - N/A   Overcast
1:53 PM 55.9 °F - 53.1 °F 90% 29.80 in 6.0 mi SSW 3.5 mph - N/A   Overcast
2:01 PM 55.4 °F - 53.6 °F 94% 29.80 in 7.0 mi Calm Calm - N/A   Overcast
2:21 PM 55.4 °F - 53.6 °F 94% 29.80 in 6.0 mi South 4.6 mph - N/A   Overcast
2:43 PM 55.4 °F - 53.6 °F 94% 29.80 in 6.0 mi SW 3.5 mph - N/A   Overcast
2:53 PM 55.0 °F - 54.0 °F 96% 29.80 in 6.0 mi Calm Calm - N/A   Overcast
3:00 PM 55.4 °F - 53.6 °F 94% 29.81 in 6.0 mi Calm Calm - N/A   Overcast
3:12 PM 55.4 °F - 53.6 °F 94% 29.80 in 7.0 mi Calm Calm - N/A   Overcast
3:53 PM 55.9 °F - 54.0 °F 93% 29.81 in 8.0 mi Calm Calm - N/A   Overcast
4:42 PM 55.4 °F - 53.6 °F 94% 29.82 in 7.0 mi Calm Calm - N/A   Overcast
4:50 PM 55.4 °F - 53.6 °F 94% 29.82 in 8.0 mi Calm Calm - N/A   Overcast
4:53 PM 55.0 °F - 54.0 °F 96% 29.81 in 8.0 mi Calm Calm - N/A   Overcast
5:00 PM 55.4 °F - 53.6 °F 94% 29.82 in 8.0 mi Calm Calm - N/A   Overcast
5:11 PM 55.4 °F - 53.6 °F 94% 29.83 in 9.0 mi Calm Calm - N/A   Overcast
5:53 PM 55.0 °F - 53.1 °F 93% 29.82 in 7.0 mi Calm Calm - N/A   Overcast
6:35 PM 53.6 °F - 53.6 °F 100% 29.83 in 7.0 mi Calm Calm - N/A   Overcast
7:53 PM 53.1 °F - 53.1 °F 100% 29.83 in 8.0 mi Calm Calm - N/A   Overcast
8:53 PM 53.1 °F - 53.1 °F 100% 29.85 in 6.0 mi Calm Calm - N/A   Overcast
9:53 PM 53.1 °F - 53.1 °F 100% 29.86 in 6.0 mi Calm Calm - N/A   Overcast
10:27 PM 53.6 °F - 53.6 °F 100% 29.87 in 5.0 mi Calm Calm - 0.00 in Rain Light Rain
10:53 PM 53.1 °F - 53.1 °F 100% 29.86 in 6.0 mi Calm Calm - 0.00 in   Overcast
11:53 PM 53.1 °F - 53.1 °F 100% 29.87 in 5.0 mi Calm Calm - 0.00 in   Overcast